Temperature
-1 -1 -1 -0 -0 -0 -0 -0 0 0 0 0 1 1 1 1 2 2 2 2 2 2 2 2 2 2 3 3 3 3 3 3 3 3 3 4 4 4 4 5 5 5 6
-2 -1 -1 -1 -1 -1 -1 -1 -0 -0 -0 -0 0 0 0 1 1 1 1 1 1 1 2 2 2 2 2 2 2 2 2 2 2 3 3 3 4 4 4 4 4 5 5
-2 -2 -2 -2 -1 -1 -1 -1 -1 -1 -1 -1 -0 -0 -0 0 0 0 0 1 1 1 1 1 1 1 2 2 2 2 2 2 2 2 2 3 3 3 3 3 4 4 4
-3 -2 -2 -2 -2 -2 -2 -1 -1 -1 -1 -1 -1 -1 -1 -0 -0 -0 -0 -0 -0 0 0 1 1 1 1 1 1 1 2 2 2 2 2 2 2 2 2 3 3 3 4
-3 -3 -2 -2 -2 -2 -2 -2 -2 -2 -2 -2 -1 -1 -1 -1 -1 -1 -1 -1 -1 -1 -0 -0 0 1 1 1 1 1 1 1 1 1 1 1 1 2 2 2 2 3 3
-3 -3 -3 -3 -3 -3 -3 -2 -2 -2 -2 -2 -2 -2 -2 -1 -1 -1 -1 -2 -1 -1 -1 -1 -0 -0 0 0 1 1 1 1 1 1 1 1 1 1 2 2 2 2 2
-4 -4 -3 -3 -3 -3 -3 -3 -3 -3 -3 -2 -2 -2 -2 -2 -2 -2 -2 -2 -2 -2 -1 -1 -1 -1 -1 -0 0 0 0 0 1 1 1 1 1 1 1 1 1 2 2
-4 -4 -4 -4 -4 -4 -4 -3 -3 -3 -3 -3 -3 -3 -3 -2 -2 -2 -2 -2 -2 -2 -2 -2 -1 -1 -1 -1 -0 -0 -0 0 0 0 1 1 1 1 1 1 1 1 1
-5 -4 -4 -4 -4 -4 -4 -4 -4 -4 -3 -3 -3 -3 -3 -3 -3 -3 -3 -3 -2 -2 -2 -2 -2 -1 -1 -1 -1 -1 -1 -0 -0 -0 0 0 0 0 0 0 0 0 0
-5 -5 -5 -5 -5 -5 -5 -4 -4 -4 -4 -4 -4 -4 -4 -4 -4 -3 -3 -3 -3 -3 -2 -2 -2 -2 -1 -1 -1 -1 -1 -1 -1 -0 -0 -0 -0 -0 -0 -0 -0 -0 -0
-5 -5 -5 -5 -5 -5 -5 -5 -5 -5 -5 -5 -5 -4 -4 -4 -4 -4 -4 -4 -3 -3 -3 -3 -2 -2 -2 -2 -1 -1 -1 -1 -1 -1 -1 -1 -1 -1 -1 -1 -1 -1 -1
-6 -5 -5 -5 -5 -5 -5 -5 -5 -5 -5 -5 -5 -5 -5 -5 -5 -4 -4 -4 -4 -4 -3 -3 -3 -3 -2 -2 -2 -2 -1 -1 -1 -1 -1 -1 -1 -1 -1 -1 -1 -1 -1
-6 -6 -6 -5 -5 -6 -6 -6 -6 -6 -6 -6 -6 -6 -5 -5 -5 -5 -5 -5 -4 -4 -4 -3 -3 -3 -3 -2 -2 -2 -2 -2 -2 -2 -2 -2 -1 -1 -2 -2 -2 -2 -2
-6 -6 -6 -6 -6 -6 -6 -6 -6 -6 -6 -6 -6 -6 -6 -6 -6 -6 -5 -5 -5 -4 -4 -4 -4 -3 -3 -3 -3 -2 -2 -2 -2 -2 -2 -2 -2 -2 -2 -2 -2 -2 -2
-7 -7 -7 -7 -7 -6 -6 -6 -7 -6 -7 -7 -7 -7 -6 -6 -6 -6 -6 -5 -5 -5 -5 -4 -4 -4 -4 -3 -3 -3 -3 -3 -3 -2 -2 -3 -3 -3 -3 -3 -3 -3 -3
-8 -8 -8 -7 -7 -7 -7 -7 -7 -7 -7 -7 -7 -7 -7 -7 -7 -6 -6 -6 -5 -5 -5 -5 -5 -5 -4 -4 -4 -4 -3 -3 -3 -3 -3 -3 -3 -3 -3 -3 -3 -3 -3
-8 -8 -8 -8 -8 -8 -8 -8 -7 -7 -7 -7 -7 -7 -7 -7 -7 -6 -6 -6 -6 -6 -6 -6 -5 -5 -5 -5 -4 -4 -4 -4 -4 -4 -3 -3 -3 -4 -4 -4 -4 -4 -4
-9 -9 -9 -9 -8 -8 -8 -8 -8 -8 -8 -7 -7 -7 -7 -7 -7 -7 -6 -6 -6 -6 -6 -6 -6 -6 -5 -5 -5 -5 -4 -4 -4 -4 -4 -4 -4 -4 -4 -4 -4 -4 -4
-9 -9 -9 -9 -9 -9 -9 -9 -9 -9 -9 -8 -7 -7 -7 -7 -7 -7 -7 -7 -7 -7 -6 -6 -6 -6 -6 -6 -5 -5 -5 -5 -4 -4 -4 -4 -4 -4 -4 -4 -4 -4 -5
-9 -9 -10 -10 -10 -10 -9 -9 -9 -9 -9 -9 -8 -8 -8 -8 -8 -7 -7 -7 -7 -7 -7 -7 -6 -6 -6 -6 -6 -6 -5 -5 -5 -5 -5 -5 -5 -5 -5 -5 -5 -5 -5
-10 -10 -10 -10 -10 -10 -10 -10 -10 -10 -10 -9 -9 -9 -9 -9 -8 -8 -8 -8 -8 -7 -7 -7 -7 -7 -7 -7 -6 -6 -6 -6 -5 -5 -5 -5 -5 -5 -5 -5 -5 -5 -5
-10 -10 -10 -10 -10 -10 -11 -10 -10 -10 -10 -10 -9 -9 -9 -9 -9 -9 -9 -8 -8 -8 -8 -8 -7 -7 -7 -7 -7 -7 -6 -6 -6 -6 -6 -6 -6 -5 -5 -5 -5 -5 -5
-11 -11 -11 -11 -11 -11 -11 -11 -11 -11 -11 -10 -10 -10 -10 -10 -10 -9 -9 -9 -9 -9 -8 -8 -8 -7 -7 -7 -7 -7 -7 -7 -7 -6 -6 -6 -6 -6 -6 -6 -6 -6 -6
-11 -11 -11 -11 -11 -11 -11 -11 -11 -11 -11 -11 -11 -10 -10 -10 -10 -10 -10 -9 -9 -9 -9 -8 -8 -8 -8 -8 -7 -7 -7 -7 -7 -7 -7 -7 -7 -7 -6 -7 -6 -6 -6
-12 -12 -12 -12 -12 -12 -12 -11 -11 -11 -11 -11 -11 -11 -11 -11 -10 -10 -10 -10 -10 -10 -9 -9 -9 -8 -8 -8 -8 -8 -8 -7 -7 -7 -7 -7 -7 -7 -7 -7 -7 -7 -7
-12 -12 -12 -12 -12 -12 -12 -12 -12 -12 -12 -12 -12 -11 -11 -11 -11 -11 -11 -11 -10 -10 -10 -10 -10 -9 -9 -9 -8 -8 -8 -8 -8 -7 -7 -8 -8 -7 -7 -8 -7 -7 -7
Wind_Speed
4 5 5 4 4 4 4 5 4 4 4 5 5 5 5 4 4 4 5 5 5 5 5 5 6 5 5 4 4 4 4 4 7 5 3 3 3 3 4 4 5 6 7
5 5 5 5 4 5 5 5 5 5 5 5 5 5 5 5 5 5 6 6 6 6 6 6 6 6 6 5 5 6 5 5 6 7 5 3 4 4 4 4 4 6 6
5 5 5 5 5 5 5 5 5 5 5 5 5 6 6 6 6 6 6 7 7 7 7 7 7 6 7 6 6 6 6 6 5 6 6 4 3 3 3 3 4 5 6
4 5 5 5 5 5 5 5 5 5 6 6 6 6 6 6 7 7 6 7 7 7 7 7 8 8 8 7 7 7 6 6 6 6 5 4 4 3 3 4 4 5 5
5 5 5 4 4 4 5 5 5 6 6 6 6 6 6 6 7 7 6 7 7 7 8 8 9 10 11 10 8 7 7 7 6 6 6 5 5 5 5 4 6 5 5
5 5 5 4 4 4 5 5 5 5 5 6 6 6 7 7 9 10 8 7 7 8 9 9 9 10 11 13 13 13 12 10 9 8 7 8 8 7 6 6 5 4 5
5 5 4 4 4 4 5 5 5 5 5 6 6 6 7 8 10 11 11 8 8 8 9 9 9 9 10 9 11 12 13 15 14 11 11 11 10 9 7 7 7 7 6
5 5 4 4 4 5 5 5 5 5 5 6 7 7 7 8 10 10 11 8 8 9 9 9 10 10 10 10 9 10 10 11 13 12 11 11 10 9 9 9 8 6 3
5 5 5 4 5 5 6 6 5 5 6 6 7 7 7 8 10 10 10 6 7 9 9 9 9 10 12 12 10 10 11 10 11 13 14 13 14 13 10 6 6 5 5
5 5 5 5 5 6 6 6 5 5 6 7 7 7 7 7 10 11 10 6 7 8 8 9 11 12 13 12 10 10 11 10 7 7 8 9 10 11 13 10 9 7 5
5 5 5 5 5 6 6 5 5 6 6 6 7 7 7 8 10 11 11 6 7 8 8 7 8 12 14 14 13 11 12 10 7 7 7 6 6 6 7 8 8 8 7
5 5 5 5 5 5 5 5 5 5 6 6 6 6 5 6 8 10 12 11 10 9 9 7 8 12 13 14 11 12 12 10 6 6 6 6 6 6 6 6 6 6 6
5 5 5 5 5 4 4 4 5 4 4 4 5 6 5 5 6 11 12 13 13 9 8 11 12 12 11 10 11 12 10 7 6 7 7 7 6 5 4 4 4 4 3
6 6 5 5 5 4 4 4 4 4 4 5 5 6 6 5 5 5 6 7 9 9 8 9 10 11 10 10 9 7 6 6 6 6 6 5 4 4 5 4 4 4 4
6 6 5 4 4 4 4 4 4 4 5 6 5 6 6 6 8 10 8 7 6 6 6 5 4 5 5 5 5 5 4 4 5 5 5 5 5 5 5 5 4 4 4
6 6 5 4 4 4 4 5 6 7 9 10 10 9 7 9 12 12 12 11 11 9 6 5 5 5 5 5 4 4 4 5 5 5 5 6 6 6 5 5 4 5 5
6 6 5 5 5 5 5 5 6 7 8 9 9 10 10 10 11 10 10 10 9 7 5 4 5 5 5 4 4 4 5 4 4 4 5 5 6 5 5 5 5 5 5
7 7 6 5 5 5 5 5 5 5 6 5 7 9 9 10 10 9 9 7 5 5 4 4 5 5 4 4 4 4 4 4 4 4 4 5 5 6 6 6 6 6 5
6 5 5 5 5 5 5 5 4 5 5 5 5 6 8 9 9 8 7 3 4 4 4 4 4 4 3 3 3 3 4 4 4 3 4 4 5 5 5 5 5 7 6
6 9 8 6 5 5 5 4 4 5 5 5 5 5 5 5 4 4 4 3 3 3 3 3 3 3 3 3 2 2 2 3 3 4 4 4 4 4 5 5 5 5 5
6 7 9 6 5 5 5 5 5 5 5 5 5 6 7 4 4 4 4 4 3 3 3 3 3 3 2 2 2 2 2 2 2 3 3 3 3 3 4 4 4 5 4
5 5 5 5 5 5 5 5 5 5 5 5 5 6 8 5 4 4 4 4 4 4 3 3 3 3 2 2 2 2 2 2 2 2 2 3 3 3 3 4 4 4 5
5 5 5 5 5 6 6 5 5 5 5 5 5 5 5 4 4 4 5 5 5 4 4 3 3 3 3 3 3 3 3 3 3 3 3 3 3 3 3 3 4 4 5
5 5 5 5 5 4 4 5 5 5 5 5 5 5 5 4 4 5 5 5 5 5 4 4 4 4 5 4 4 4 4 5 5 4 4 3 3 3 3 3 4 4 4
4 4 4 4 5 5 5 5 5 5 5 5 5 5 5 5 5 5 5 5 5 5 6 5 5 5 6 6 6 5 6 6 5 4 4 4 3 3 3 3 3 4 4
4 4 4 4 4 4 4 4 5 5 5 5 5 5 5 5 5 5 5 5 5 5 6 5 6 7 8 7 6 7 7 6 5 4 2 3 3 3 3 3 3 3 4
Wind_Direction
273 265 267 261 257 263 252 242 247 248 249 247 249 253 256 257 257 256 258 259 256 253 249 245 245 240 234 227 225 227 231 230 251 262 256 223 225 241 250 246 247 235 232
272 266 263 260 253 256 256 247 250 250 252 252 251 250 253 256 252 249 255 258 252 253 250 249 249 242 235 229 226 230 233 234 241 249 250 237 229 222 233 238 257 247 239
267 263 259 252 251 251 256 252 249 248 252 255 250 250 251 254 254 253 250 254 253 253 253 249 250 241 242 236 229 233 236 241 241 236 245 245 242 226 229 250 260 249 239
274 265 259 251 249 254 256 255 251 249 248 246 246 248 249 252 256 256 256 258 258 258 257 255 252 244 240 237 235 233 233 235 236 230 238 242 242 231 217 235 258 246 236
277 268 260 255 251 255 257 252 254 253 254 251 251 251 248 250 250 251 253 257 259 262 261 256 255 250 246 243 240 234 229 232 232 229 234 243 240 227 227 231 242 243 238
276 270 266 253 249 252 257 256 253 255 256 258 257 254 252 256 260 264 262 256 258 259 263 262 261 255 250 251 249 242 235 231 231 231 236 233 236 234 232 225 232 236 248
282 279 271 258 255 259 263 265 261 258 257 259 259 255 254 257 263 265 265 259 254 254 257 262 265 262 253 246 249 248 243 240 236 234 232 234 233 227 223 224 230 233 244
282 277 281 275 264 266 264 263 262 264 261 261 260 254 257 263 269 270 270 263 257 257 255 256 258 256 252 248 248 248 244 241 239 236 235 236 232 226 221 225 232 243 260
281 278 276 276 273 268 266 265 264 267 268 265 262 257 256 260 267 270 271 259 261 262 261 259 259 254 257 254 249 249 250 249 244 239 242 242 236 230 225 221 226 223 247
286 283 280 274 271 266 263 265 264 264 267 269 270 263 259 259 268 273 273 258 263 267 264 260 258 258 259 253 244 242 246 250 242 239 240 238 231 224 222 218 218 219 234
297 291 284 275 269 267 265 265 264 264 262 262 268 269 262 263 266 269 272 262 261 267 267 265 259 264 265 258 253 244 245 250 238 232 231 228 223 218 215 215 217 213 220
305 299 293 287 281 277 269 269 265 259 257 261 267 270 266 266 270 269 271 272 272 267 268 268 264 269 271 266 256 247 248 250 237 228 226 225 222 222 216 209 211 213 220
313 306 303 299 293 288 278 273 271 265 260 266 266 271 274 275 275 279 275 275 274 272 270 271 271 271 273 269 257 248 241 236 232 229 227 226 220 212 201 203 201 196 209
318 314 306 304 301 296 285 275 269 269 268 267 267 271 275 278 274 274 275 276 276 277 276 276 275 273 271 266 257 247 238 230 226 228 225 222 209 204 207 203 203 194 208
322 320 319 314 307 304 302 294 289 277 271 271 267 267 270 274 279 288 290 284 283 275 284 280 274 276 271 262 251 241 234 229 231 225 218 220 216 210 210 202 203 206 217
327 326 326 324 319 313 309 309 304 295 298 292 284 282 283 283 289 291 294 295 294 293 291 271 270 269 267 263 251 245 238 231 223 216 214 214 213 210 209 205 206 207 211
326 324 321 321 320 318 315 311 313 319 313 307 304 300 296 298 298 297 297 298 294 293 277 268 266 267 267 261 250 243 242 238 229 218 214 212 211 209 205 205 205 207 213
322 318 318 317 318 317 315 311 308 311 316 318 316 312 309 310 310 308 306 304 291 288 271 267 270 271 268 263 256 246 242 238 226 220 218 211 207 205 204 206 207 208 214
321 320 317 318 319 319 317 315 314 313 313 314 319 321 322 320 318 318 320 305 289 287 287 282 277 277 278 273 266 253 239 232 223 217 216 214 208 203 206 208 208 213 219
321 321 326 326 327 326 326 326 324 322 320 319 320 321 322 327 334 331 331 320 310 305 302 300 297 291 284 278 276 269 258 239 223 218 217 215 213 206 205 205 206 210 218
322 323 327 330 330 328 328 327 327 324 320 319 318 321 331 338 334 333 335 333 327 319 314 306 303 297 289 282 274 270 266 256 237 221 217 214 212 215 211 208 212 214 210
320 321 327 328 328 328 330 331 329 327 325 324 328 332 338 349 344 339 337 334 331 327 322 316 317 315 309 288 274 277 278 271 261 240 226 221 219 216 216 214 215 213 205
322 325 328 329 328 328 333 335 333 331 330 333 337 338 342 346 345 343 342 341 339 336 333 333 334 334 324 306 289 276 270 266 255 240 231 228 226 221 217 221 213 208 207
328 328 330 332 333 333 332 333 335 336 338 339 341 343 344 344 345 344 344 342 343 342 337 335 334 330 329 318 303 293 285 280 267 242 225 222 224 225 214 218 221 213 210
327 328 330 331 331 330 330 333 338 342 343 341 341 343 345 346 348 347 345 347 347 347 345 338 331 329 328 324 315 304 305 305 292 265 226 214 213 218 214 215 221 214 216
325 325 326 326 327 328 332 334 335 338 337 337 339 342 343 343 344 343 343 346 348 346 344 340 339 337 331 325 322 324 328 325 313 297 249 213 208 213 213 218 216 215 212
Height
1473 1473 1473 1472 1473 1473 1473 1473 1474 1475 1476 1476 1477 1477 1478 1479 1479 1480 1480 1481 1482 1483 1484 1485 1486 1488 1488 1489 1491 1492 1493 1494 1492 1491 1493 1494 1495 1496 1497 1498 1499 1500 1501
1468 1468 1467 1467 1467 1468 1468 1468 1469 1470 1471 1471 1472 1472 1473 1473 1474 1475 1475 1476 1476 1477 1478 1479 1480 1482 1483 1484 1485 1486 1487 1488 1488 1487 1487 1488 1489 1491 1492 1493 1493 1495 1496
1464 1463 1463 1462 1462 1463 1463 1463 1464 1464 1465 1466 1466 1467 1467 1468 1469 1469 1470 1471 1471 1472 1473 1474 1475 1476 1477 1478 1479 1480 1481 1482 1483 1482 1481 1483 1484 1485 1486 1487 1488 1488 1489
1459 1458 1457 1457 1457 1457 1457 1458 1458 1459 1459 1460 1460 1461 1462 1462 1463 1464 1464 1465 1465 1466 1467 1468 1469 1470 1471 1472 1473 1474 1475 1476 1476 1476 1476 1477 1478 1479 1480 1480 1481 1482 1483
1454 1453 1452 1452 1452 1452 1452 1453 1453 1453 1454 1454 1455 1455 1456 1457 1457 1458 1458 1459 1460 1460 1461 1462 1462 1463 1464 1466 1467 1467 1468 1469 1469 1470 1470 1471 1471 1472 1473 1474 1475 1476 1476
1449 1448 1448 1447 1447 1447 1447 1447 1447 1448 1448 1449 1449 1449 1450 1451 1452 1453 1453 1454 1454 1454 1454 1455 1456 1456 1457 1458 1460 1461 1462 1462 1463 1463 1463 1463 1464 1466 1467 1469 1469 1469 1468
1444 1443 1443 1443 1442 1443 1443 1442 1442 1442 1442 1443 1443 1443 1444 1444 1446 1447 1448 1448 1448 1448 1448 1448 1448 1449 1450 1451 1451 1452 1453 1454 1456 1456 1456 1455 1457 1459 1460 1461 1462 1463 1462
1439 1439 1438 1438 1437 1437 1437 1437 1437 1437 1437 1437 1437 1438 1437 1438 1439 1440 1441 1442 1441 1441 1441 1442 1442 1442 1443 1444 1444 1444 1445 1445 1447 1448 1449 1449 1451 1452 1454 1455 1456 1456 1457
1435 1434 1434 1433 1432 1432 1432 1432 1432 1432 1432 1431 1432 1432 1432 1432 1433 1434 1435 1435 1434 1434 1434 1434 1435 1435 1435 1437 1437 1437 1437 1437 1439 1440 1441 1442 1443 1445 1447 1449 1449 1449 1448
1431 1430 1430 1429 1428 1428 1427 1427 1427 1427 1427 1427 1426 1426 1426 1426 1427 1428 1429 1429 1428 1427 1427 1427 1427 1428 1428 1429 1430 1429 1429 1429 1431 1432 1433 1435 1436 1437 1439 1441 1441 1442 1442
1427 1426 1425 1424 1424 1423 1423 1422 1422 1422 1422 1421 1421 1421 1421 1421 1421 1422 1423 1423 1422 1421 1420 1419 1419 1420 1421 1421 1422 1422 1421 1423 1424 1425 1426 1427 1428 1429 1431 1433 1434 1435 1436
1424 1422 1421 1420 1420 1419 1418 1418 1418 1418 1417 1416 1415 1415 1415 1416 1416 1416 1416 1416 1416 1415 1413 1413 1413 1413 1413 1413 1413 1414 1415 1416 1417 1417 1418 1419 1420 1422 1423 1425 1427 1428 1430
1420 1419 1418 1416 1415 1415 1414 1413 1413 1412 1411 1411 1411 1410 1409 1410 1410 1410 1410 1410 1409 1409 1407 1407 1406 1406 1405 1405 1405 1406 1408 1409 1409 1409 1410 1411 1413 1415 1417 1418 1420 1422 1424
1418 1416 1414 1413 1412 1411 1411 1410 1408 1407 1407 1406 1406 1405 1404 1404 1404 1404 1403 1403 1402 1402 1401 1400 1399 1398 1398 1397 1398 1399 1400 1401 1401 1402 1402 1404 1406 1408 1409 1411 1413 1414 1417
1415 1413 1411 1410 1409 1407 1406 1405 1404 1403 1403 1403 1402 1401 1400 1398 1398 1398 1398 1397 1396 1395 1394 1393 1392 1391 1390 1390 1390 1391 1392 1393 1394 1395 1396 1397 1399 1400 1402 1404 1406 1408 1410
1412 1410 1408 1406 1405 1403 1402 1401 1400 1400 1399 1398 1397 1397 1395 1394 1394 1393 1392 1391 1390 1390 1389 1387 1385 1385 1385 1384 1384 1384 1385 1385 1386 1387 1389 1390 1392 1393 1395 1398 1400 1402 1404
1411 1408 1406 1404 1402 1401 1399 1398 1396 1395 1394 1393 1392 1391 1390 1389 1388 1388 1387 1386 1385 1384 1383 1381 1381 1380 1379 1379 1379 1379 1379 1380 1380 1381 1382 1384 1386 1387 1389 1391 1394 1396 1398
1410 1408 1406 1403 1401 1399 1398 1396 1394 1392 1389 1388 1388 1387 1386 1385 1384 1383 1382 1380 1379 1379 1377 1377 1376 1375 1374 1374 1373 1373 1374 1374 1375 1376 1377 1378 1380 1382 1383 1385 1388 1390 1392
1408 1406 1404 1402 1400 1398 1396 1394 1392 1390 1388 1386 1384 1383 1382 1381 1380 1378 1377 1376 1374 1374 1373 1372 1372 1371 1370 1369 1369 1369 1369 1369 1370 1371 1372 1373 1375 1376 1378 1380 1382 1384 1386
1407 1405 1403 1400 1398 1396 1394 1392 1390 1388 1386 1384 1382 1381 1379 1378 1376 1374 1373 1372 1372 1371 1370 1369 1368 1367 1366 1365 1365 1365 1364 1365 1365 1366 1367 1369 1370 1372 1373 1375 1377 1379 1381
1406 1403 1401 1399 1397 1395 1393 1390 1388 1387 1385 1383 1381 1380 1378 1376 1374 1373 1371 1370 1369 1368 1367 1366 1364 1364 1363 1362 1361 1361 1361 1361 1361 1362 1363 1365 1366 1367 1369 1370 1372 1374 1375
1404 1402 1400 1398 1396 1394 1392 1390 1387 1385 1384 1382 1379 1378 1377 1375 1373 1371 1370 1369 1367 1366 1365 1364 1362 1361 1360 1359 1358 1358 1358 1357 1358 1358 1360 1361 1362 1363 1364 1366 1367 1369 1371
1403 1401 1399 1397 1395 1393 1391 1389 1387 1385 1383 1381 1379 1377 1375 1373 1372 1370 1369 1367 1366 1364 1363 1362 1360 1359 1358 1357 1356 1356 1355 1355 1355 1355 1356 1356 1357 1359 1360 1362 1363 1364 1366
1402 1400 1398 1396 1394 1392 1390 1388 1386 1384 1382 1380 1379 1377 1375 1373 1371 1369 1368 1366 1364 1363 1361 1360 1358 1357 1356 1355 1354 1353 1353 1352 1352 1351 1352 1353 1354 1355 1356 1358 1359 1360 1361
1401 1399 1397 1395 1393 1391 1389 1387 1386 1384 1382 1380 1378 1376 1374 1372 1370 1369 1367 1365 1363 1361 1360 1358 1357 1355 1354 1352 1351 1350 1349 1349 1348 1348 1349 1350 1351 1352 1353 1354 1355 1356 1357
1400 1398 1396 1394 1392 1390 1389 1387 1385 1383 1381 1379 1377 1375 1374 1372 1370 1368 1367 1364 1362 1361 1359 1357 1356 1354 1352 1350 1349 1347 1346 1346 1346 1346 1346 1347 1347 1348 1349 1350 1351 1352 1353